• In United Kingdom
  • List of Countries
  • For 7 days
  • Water Temperature
  • Satellite Maps
  • Weather Map
  • Weather Widgets
  • user-avatar
    Login

    Hourly Weather Shirokopole

    Today, 24 September, Monday

    Time Temperature Precipitation Wind Pressure Humidity
    00:00 +19°C° 0 mm 6 mps 750 mmHg 40%
    01:00 +17°C° 0.1 mm 6 mps 750 mmHg 45%
    02:00 +17°C° 0.1 mm 6 mps 750 mmHg 51%
    03:00 +17°C° 0.1 mm 6 mps 749 mmHg 57%
    04:00 +16°C° 1.5 mm 6 mps 750 mmHg 65%
    05:00 +14°C° 1.5 mm 6 mps 750 mmHg 73%
    06:00 +13°C° 1.5 mm 6 mps 750 mmHg 81%
    07:00 +13°C° 0.2 mm 6 mps 751 mmHg 76%
    08:00 +13°C° 0.2 mm 6 mps 751 mmHg 71%
    09:00 +13°C° 0.2 mm 6 mps 752 mmHg 66%
    10:00 +14°C° 0 mm 6 mps 752 mmHg 63%
    11:00 +15°C° 0 mm 6 mps 752 mmHg 60%
    12:00 +15°C° 0 mm 6 mps 753 mmHg 57%
    13:00 +16°C° 0 mm 5 mps 753 mmHg 53%
    14:00 +17°C° 0 mm 5 mps 753 mmHg 50%
    15:00 +18°C° 0 mm 4 mps 753 mmHg 47%
    16:00 +17°C° 0 mm 3 mps 753 mmHg 49%
    17:00 +17°C° 0 mm 2 mps 753 mmHg 52%
    18:00 +16°C° 0 mm 1 mps 753 mmHg 54%
    19:00 +15°C° 0 mm 1 mps 753 mmHg 56%
    20:00 +15°C° 0 mm 1 mps 753 mmHg 57%
    21:00 +14°C° 0 mm 1 mps 754 mmHg 58%
    22:00 +14°C° 0 mm 2 mps 753 mmHg 58%
    23:00 +14°C° 0 mm 2 mps 753 mmHg 59%

    Tomorrow, 25 September, Tuesday

    Time Temperature Precipitation Wind Pressure Humidity
    00:00 +12°C° 0 mm 3 mps 753 mmHg 60%
    01:00 +12°C° 0 mm 3 mps 753 mmHg 59%
    02:00 +12°C° 0 mm 4 mps 752 mmHg 59%
    03:00 +12°C° 0 mm 4 mps 752 mmHg 59%
    04:00 +12°C° 0 mm 4 mps 751 mmHg 57%
    05:00 +12°C° 0 mm 5 mps 751 mmHg 55%
    06:00 +11°C° 0 mm 6 mps 750 mmHg 53%
    07:00 +14°C° 0 mm 7 mps 750 mmHg 50%
    08:00 +15°C° 0 mm 7 mps 750 mmHg 47%
    09:00 +16°C° 0 mm 8 mps 749 mmHg 44%
    10:00 +17°C° 0.2 mm 8 mps 749 mmHg 45%
    11:00 +17°C° 0.2 mm 8 mps 749 mmHg 47%
    12:00 +18°C° 0.2 mm 8 mps 748 mmHg 48%
    13:00 +18°C° 0.3 mm 8 mps 748 mmHg 53%
    14:00 +20°C° 0.3 mm 7 mps 748 mmHg 58%
    15:00 +20°C° 0.3 mm 7 mps 748 mmHg 63%
    16:00 +17°C° 0.5 mm 6 mps 748 mmHg 69%
    17:00 +15°C° 0.5 mm 6 mps 749 mmHg 75%
    18:00 +13°C° 0.5 mm 5 mps 749 mmHg 81%
    19:00 +13°C° 0.2 mm 5 mps 750 mmHg 79%
    20:00 +13°C° 0.2 mm 4 mps 750 mmHg 77%
    21:00 +12°C° 0.2 mm 4 mps 751 mmHg 75%
    22:00 +12°C° 0.2 mm 4 mps 751 mmHg 74%
    23:00 +12°C° 0.2 mm 3 mps 752 mmHg 73%

    Day after tomorrow, 26 September, Wednesday

    Time Temperature Precipitation Wind Pressure Humidity
    00:00 +12°C° 0.2 mm 2 mps 752 mmHg 72%
    01:00 +12°C° 0 mm 2 mps 753 mmHg 74%
    02:00 +10°C° 0 mm 2 mps 753 mmHg 76%
    03:00 +10°C° 0 mm 2 mps 754 mmHg 77%
    04:00 +10°C° 0 mm 2 mps 754 mmHg 79%
    05:00 +9°C° 0 mm 2 mps 755 mmHg 81%
    06:00 +9°C° 0 mm 3 mps 755 mmHg 82%
    07:00 +10°C° 0 mm 3 mps 756 mmHg 76%
    08:00 +10°C° 0 mm 3 mps 756 mmHg 70%
    09:00 +11°C° 0 mm 4 mps 757 mmHg 65%
    10:00 +12°C° 0 mm 4 mps 757 mmHg 60%
    11:00 +13°C° 0 mm 4 mps 758 mmHg 55%
    12:00 +14°C° 0 mm 4 mps 758 mmHg 50%
    13:00 +14°C° 0 mm 4 mps 758 mmHg 49%
    14:00 +14°C° 0 mm 4 mps 758 mmHg 48%
    15:00 +14°C° 0 mm 4 mps 759 mmHg 47%
    16:00 +13°C° 0 mm 4 mps 759 mmHg 51%
    17:00 +12°C° 0 mm 3 mps 759 mmHg 55%
    18:00 +11°C° 0 mm 3 mps 760 mmHg 60%
    19:00 +10°C° 0 mm 3 mps 760 mmHg 63%
    20:00 +9°C° 0 mm 2 mps 760 mmHg 66%
    21:00 +9°C° 0 mm 2 mps 761 mmHg 69%
    22:00 +8°C° 0 mm 2 mps 761 mmHg 70%
    23:00 +8°C° 0 mm 2 mps 761 mmHg 71%

    27 September, Thursday

    Time Temperature Precipitation Wind Pressure Humidity
    00:00 +8°C° 0 mm 1 mps 761 mmHg 72%
    01:00 +8°C° 0 mm 1 mps 761 mmHg 73%
    02:00 +8°C° 0 mm 1 mps 761 mmHg 74%
    03:00 +7°C° 0 mm 1 mps 761 mmHg 75%
    04:00 +7°C° 0 mm 1 mps 761 mmHg 76%
    05:00 +7°C° 0 mm 1 mps 761 mmHg 77%
    06:00 +6°C° 0 mm 2 mps 760 mmHg 78%
    07:00 +7°C° 0 mm 3 mps 760 mmHg 71%
    08:00 +9°C° 0 mm 3 mps 760 mmHg 64%
    09:00 +11°C° 0 mm 4 mps 760 mmHg 56%
    10:00 +12°C° 0 mm 5 mps 759 mmHg 52%
    11:00 +11°C° 0 mm 6 mps 759 mmHg 47%
    12:00 +12°C° 0 mm 7 mps 758 mmHg 42%
    13:00 +12°C° 0 mm 7 mps 758 mmHg 41%
    14:00 +12°C° 0 mm 7 mps 757 mmHg 40%
    15:00 +12°C° 0 mm 8 mps 757 mmHg 39%
    16:00 +12°C° 0 mm 7 mps 757 mmHg 41%
    17:00 +11°C° 0 mm 6 mps 757 mmHg 42%
    18:00 +10°C° 0 mm 5 mps 756 mmHg 44%
    19:00 +10°C° 0 mm 5 mps 756 mmHg 44%
    20:00 +10°C° 0 mm 5 mps 756 mmHg 44%
    21:00 +10°C° 0 mm 5 mps 756 mmHg 44%
    22:00 +10°C° 0 mm 5 mps 756 mmHg 44%
    23:00 +10°C° 0 mm 5 mps 756 mmHg 44%

    28 September, Friday

    Time Temperature Precipitation Wind Pressure Humidity
    00:00 +10°C° 0 mm 5 mps 756 mmHg 44%
    01:00 +10°C° 0 mm 5 mps 755 mmHg 47%
    02:00 +9°C° 0 mm 5 mps 755 mmHg 51%
    03:00 +9°C° 0 mm 5 mps 755 mmHg 54%
    04:00 +10°C° 0 mm 4 mps 755 mmHg 56%
    05:00 +10°C° 0 mm 4 mps 755 mmHg 59%
    06:00 +10°C° 0 mm 4 mps 755 mmHg 62%
    07:00 +10°C° 0 mm 5 mps 755 mmHg 61%
    08:00 +10°C° 0 mm 5 mps 755 mmHg 61%
    09:00 +11°C° 0 mm 6 mps 755 mmHg 61%
    10:00 +14°C° 0 mm 6 mps 755 mmHg 57%
    11:00 +15°C° 0 mm 7 mps 754 mmHg 53%
    12:00 +16°C° 0 mm 8 mps 754 mmHg 49%
    13:00 +17°C° 0 mm 8 mps 753 mmHg 48%
    14:00 +18°C° 0 mm 8 mps 753 mmHg 48%
    15:00 +18°C° 0 mm 8 mps 753 mmHg 47%
    16:00 +18°C° 0 mm 7 mps 752 mmHg 51%
    17:00 +17°C° 0 mm 7 mps 752 mmHg 54%
    18:00 +16°C° 0 mm 6 mps 752 mmHg 58%
    19:00 +16°C° 0 mm 6 mps 752 mmHg 59%
    20:00 +16°C° 0 mm 6 mps 753 mmHg 61%
    21:00 +16°C° 0 mm 6 mps 753 mmHg 62%
    22:00 +15°C° 0 mm 6 mps 753 mmHg 64%
    23:00 +15°C° 0 mm 5 mps 753 mmHg 65%

    29 September, Saturday

    Time Temperature Precipitation Wind Pressure Humidity
    00:00 +15°C° 0 mm 5 mps 753 mmHg 67%
    01:00 +14°C° 0 mm 4 mps 754 mmHg 71%
    02:00 +13°C° 0 mm 3 mps 754 mmHg 75%
    03:00 +13°C° 0 mm 3 mps 755 mmHg 79%
    04:00 +14°C° 0 mm 2 mps 755 mmHg 80%
    05:00 +13°C° 0 mm 2 mps 755 mmHg 80%
    06:00 +13°C° 0 mm 2 mps 756 mmHg 80%
    07:00 +14°C° 0.1 mm 2 mps 756 mmHg 77%
    08:00 +14°C° 0.1 mm 2 mps 756 mmHg 75%
    09:00 +14°C° 0.1 mm 2 mps 757 mmHg 72%
    10:00 +14°C° 0.1 mm 2 mps 757 mmHg 72%
    11:00 +14°C° 0.1 mm 1 mps 757 mmHg 71%
    12:00 +14°C° 0.1 mm 1 mps 757 mmHg 71%
    13:00 +14°C° 0 mm 1 mps 757 mmHg 72%
    14:00 +15°C° 0 mm 1 mps 756 mmHg 72%
    15:00 +15°C° 0 mm 1 mps 756 mmHg 73%
    16:00 +14°C° 0.1 mm 1 mps 756 mmHg 75%
    17:00 +14°C° 0.1 mm 1 mps 756 mmHg 78%
    18:00 +14°C° 0.1 mm 1 mps 756 mmHg 80%
    19:00 +13°C° 0.1 mm 1 mps 757 mmHg 81%
    20:00 +13°C° 0.1 mm 1 mps 757 mmHg 81%
    21:00 +13°C° 0.1 mm 1 mps 757 mmHg 81%
    22:00 +13°C° 0.3 mm 2 mps 757 mmHg 81%
    23:00 +13°C° 0.3 mm 2 mps 757 mmHg 81%
    Show more

    3.3.7123123